www.pogodaiklimat.ru

Погода и климат >> Архив погоды >> Бенин >> Натитингу


ПОГОДА в Натитингу

  • Прогноз погоды в Натитингу
  • Монитор погоды в Натитингу

АРХИВ ПОГОДЫ в Натитингу

Время (UTC), дата Ветер
(напр.,м/с)
 
Видим.   Явления Облачность Т
(С)
Тd
(С)
f
(%)
Тe
(С)
Тes
(С)
Комфортность P
(гПа)
Po
(гПа)
Тmin
(С)
Tmax
(С)
R
(мм)
R24
(мм)
S
(см)
09 9.07 ЮВ 5 10 км 10/4 400 м
[Sc Ac As]
+24.0 +20.9 83 +30 +31 очень
душно
1013.2 965.4
12 9.07 ЮВ 4 10 км 10/4 400 м
[Cu Sc Ac As]
+26.8 +21.2 71 +34 +36 очень
душно
1012.2 964.6
15 9.07 Ю 3 10 км 10/5 400 м
[Cu Sc Ac As]
+27.4 +22.5 75 +36 +37 очень
душно
1011.6 964.0
18 9.07 ЮЗ 2 10 км 10/5 400 м
[Cu Sc Ac As]
+25.5 +22.3 82 +33 +33 очень
душно
1013.2 965.3 +27.7
21 9.07 ЮВ 1 10 км 9/0
[Ac As]
+23.8 +22.2 91 +31 +31 очень
душно
1014.2 966.3
00 10.07 ЮВ 2 10 км 10/0
[Ac As]
+23.1 +21.5 91 +31 +31 очень
душно
1013.4 965.7
03 10.07 Ю 1 10 км 10/0
[Ac As]
+21.5 +20.9 96 +27 +27 душно 1012.2 964.3
06 10.07 ЮВ 1 10 км 9/0
[Ac trans Ci sp]
+21.1 +21.0 99 +26 +26 душно 1012.7 964.8 +20.5
09 10.07 Ю 4 10 км 9/0
[Ac trans Ci sp]
+25.7 +20.5 73 +32 +37 очень
душно
1014.3 966.6
12 10.07 ЮЗ 3 10 км 9/9 400 м
[Cu Sc Ac trans Ci sp]
+28.3 +21.6 67 +36 +38 очень
душно
1013.5 965.9
15 10.07 ЮЗ 4 10 км 9/8 400 м
[Cu Sc Ci sp]
+30.0 +21.3 60 +38 +39 очень
душно
1011.4 964.0
18 10.07 Ю 2 10 км 8/1 600 м
[Cu med, cong Ci sp]
+28.1 +21.7 68 +36 +36 очень
душно
1011.2 963.6 +30.3
21 10.07 Ю 1 10 км 8/0
[Ci sp]
+24.7 +23.0 90 +33 +33 очень
душно
1011.8 964.2
00 11.07 штиль 0 10 км 8/0
[Ci sp]
+23.5 +22.0 91 +30 +30 очень
душно
1011.8 964.4
03 11.07 Ю 2 10 км 8/0
[Ci sp]
+22.7 +21.7 94 +30 +30 очень
душно
1011.6 964.2
06 11.07 ЮВ 1 10 км 9/0
[Ac trans Ci sp]
+22.2 +21.8 98 +29 +30 очень
душно
1012.4 964.8 +21.8
09 11.07 Ю 3 10 км 9/5 400 м
[Cu Sc Ci sp]
+25.0 +22.1 84 +32 +36 очень
душно
1013.8 966.1
12 11.07 Ю 2 10 км 9/5 400 м
[Sc diur, vesp Ci sp]
+27.5 +21.7 71 +35 +44 очень
душно
1013.0 965.4
15 11.07 Ю 3 10 км 10/4 400 м
[Sc diur, vesp Ac As]
+27.5 +21.5 70 +35 +37 очень
душно
1010.1 962.6
18 11.07 штиль 0 10 км 10/3 400 м
[Sc diur, vesp Ac As]
+26.0 +23.1 84 +35 +35 очень
душно
1010.8 963.1 +28.3
21 11.07 В 1 10 км 10/0
[Ac As]
+25.0 +23.6 92 +34 +34 очень
душно
1011.5 963.9
00 12.07 штиль 0 10 км 10/0
[Ac As]
+24.5 +23.1 92 +33 +33 очень
душно
1011.0 963.6
03 12.07 ЮВ 1 10 км 8/0
[Ci sp]
+24.0 +22.5 91 +31 +31 очень
душно
1010.5 963.1
06 12.07 Ю 1 10 км 9/0
[Ac trans Ci sp]
+23.0 +22.6 98 +32 +32 очень
душно
1011.0 963.4 +22.5
09 12.07 ЮВ 3 10 км 10/5 400 м
[Cu Sc Ci sp]
+26.6 +23.3 82 +36 +40 очень
душно
1013.0 965.5
12 12.07 Ю 4 10 км 9/5 600 м
[Cu med, cong Ci sp]
+29.6 +22.3 65 +39 +44 очень
душно
1011.5 964.2
15 12.07 Ю 2 10 км 9/6 400 м
[Cu Sc Ac trans Ci sp]
+30.7 +22.4 61 +40 +43 очень
душно
1010.4 963.2
18 12.07 ЮЗ 2 10 км гроза без осадков 10/5 400 м
[Cb cap Ac As]
+28.6 +23.2 73 +39 +39 очень
душно
1009.7 962.4 +31.4
21 12.07 ЮВ 4 10 км в посл. час дождь {гроза} 10/6 400 м
[Cb cap Ac As]
+23.0 +22.1 95 +31 +31 очень
душно
1011.9 964.3
00 13.07 штиль 0 10 км {гроза, дождь} 10/0
[Ac As]
+23.0 +22.3 96 +31 +31 очень
душно
1011.7 964.3 2
03 13.07 ЮВ 2 10 км 10/0
[Ac As]
+22.8 +21.6 93 +30 +30 очень
душно
1010.2 963.0
06 13.07 Ю 2 10 км 9/0
[Ac trans Ci sp]
+22.5 +21.2 92 +30 +30 очень
душно
1011.9 964.4 +22.0 2
09 13.07 ЮВ 3 10 км 9/5 400 м
[Cu Sc Ac trans Ci sp]
+26.0 +22.4 81 +34 +37 очень
душно
1014.2 966.4
12 13.07 ЮВ 2 10 км 9/8 400 м
[Cu Sc Ac trans Ci sp]
+28.9 +22.1 67 +38 +41 очень
душно
1012.9 965.4
15 13.07 Ю 4 10 км 9/3 600 м
[Cu med, cong Ac trans Ci sp]
+29.5 +23.1 69 +40 +42 очень
душно
1010.0 962.7
18 13.07 Ю 1 10 км 9/3 600 м
[Cu med, cong Ac trans Ci sp]
+28.0 +23.0 74 +37 +37 очень
душно
1010.0 962.6 +30.5
21 13.07 штиль 0 10 км 8/0
[Ci sp]
+25.5 +23.4 88 +34 +34 очень
душно
1012.9 965.4
00 14.07 штиль 0 10 км 8/0
[Ci sp]
+23.6 +23.0 96 +31 +31 очень
душно
1013.0 965.6
03 14.07 Ю 1 10 км 8/0
[Ci sp]
+23.0 +22.4 96 +31 +31 очень
душно
1011.9 964.5
06 14.07 ЮВ 1 10 км 9/0
[Ac trans Ci sp]
+22.1 +21.7 98 +29 +29 очень
душно
1012.8 965.5 +21.6
09 14.07 Ю 3 10 км 9/4 400 м
[Cu Sc Ci sp]
+27.1 +21.2 70 +34 +39 очень
душно
1013.6 966.1
12 14.07 ЮЗ 4 10 км 9/9 400 м
[Cu Sc Ci sp]
+29.7 +21.6 62 +38 +39 очень
душно
1012.1 964.7
15 14.07 Ю 2 10 км 9/3 600 м
[Cu med, cong Ci sp]
+21.5 +23.0 100 +28 +34 очень
душно
1009.7 962.5
18 14.07 С 1 10 км 9/0
[Ac trans Ci sp]
+30.0 +23.6 69 +41 +41 опасность
перегрева
1009.6 962.0 +32.0
21 14.07 штиль 0 10 км 8/0
[Ci sp]
+26.7 +24.8 89 +38 +38 очень
душно
1010.7 963.5
00 15.07 штиль 0 10 км 9/0
[Ac trans Ci sp]
+25.5 +23.5 89 +35 +35 очень
душно
1010.6 963.4
03 15.07 Ю 1 10 км 8/0
[Ci sp]
+24.5 +23.1 92 +33 +33 очень
душно
1009.1 962.1
06 15.07 Ю 2 10 км 10/0
[Ac As]
+24.0 +22.7 92 +31 +32 очень
душно
1010.4 963.2 +21.5
09 15.07 Ю 2 10 км 9/0
[Ac trans Ci sp]
+25.0 +22.1 84 +32 +41 очень
душно
1012.3 964.9
12 15.07 Ю 1 10 км в посл. час дождь {гроза} 9/0
[Ac trans Ci sp]
+22.0 +20.5 91 +28 +48 душно 1011.1 963.4 18
15 15.07 С 1 10 км 9/1 600 м
[Cu med, cong Ac trans Ci sp]
+26.5 +20.6 70 +33 +39 очень
душно
1008.7 961.3
18 15.07 ЮЗ 1 10 км 10/1 600 м
[Cu med, cong Ac As Ci sp]
+25.9 +22.7 83 +34 +34 очень
душно
1008.2 960.8 +30.5 18
21 15.07 штиль 0 10 км 9/0
[Ac As Ci sp]
+23.5 +22.0 91 +30 +30 очень
душно
1009.7 962.1
00 16.07 Ю 2 10 км 8/0
[Ci sp]
+23.0 +22.3 96 +31 +31 очень
душно
1011.6 963.6
03 16.07 ЮВ 1 10 км 9/0
[Ac As]
+22.2 +21.9 98 +29 +29 очень
душно
1009.9 962.3
06 16.07 штиль 0 10 км 8/0
[Ci sp]
+22.0 +21.3 96 +29 +29 очень
душно
1010.6 962.9 +21.0 19

 

Местоположение метеостанции Натитингу (Бенин): широта 10.32 долгота 1.38 высота над уровнем моря 461 м.

В архиве по умолчанию представлена погода в Натитингу за последнюю неделю. Архивные данные за месяц целиком и за предыдущие месяцы, начиная с января 2011 года, Вы можете получить, выбрав интересующий диапазон дат из раскрывающегося списка и нажав кнопку "Ввод!".


*Определитесь, кто Вы:
робот инопланетянин человек

Внимание! Время в таблицах - всемирное. Для получения местного времени необходимо прибавить поправку, которая равна 1 ч.

Смотрите также архив погоды в соседних городах и на ближайших метеорологических станциях:

Погода в Ньамтугу (Того) (68 км)
Погода в Каре (Того) (89 км)
Погода в Манго (Того) (100 км)
Погода в Дапаоне (Того) (128 км)
Погода в Сокоде (Того) (151 км)
Погода в Параку (Бенин) (174 км)
Погода в Йенди (Гана) (181 км)
Погода в Канди (Бенин) (192 км)
Погода в Фада-Нгурме (Буркина-Фасо) (220 км)
Погода в Тамале (Гана) (261 км)

Пояснения к столбцам:

Ветер - указаны скорость ветра в м/с - средняя за 10 мин, порывы в срок и между сроками (в фигурных скобках) и направление, откуда дует ветер: С - северный, СВ - северо-восточный, В - восточный, ЮВ - юго-восточный, Ю - южный, ЮЗ - юго-западный, З - западный, СЗ - северо-западный.
Видимость - горизонтальная дальность видимости в метрах или километрах. При видимости от 1 до 10 км при отсутствии осадков обычно наблюдается дымка, при ухудшении видимости до 1 км и менее - туман. В сухую погоду видимость может ухудшаться дымом, пылью или мглою.
Явления - указаны атмосферные явления, наблюдавшиеся в срок или в последний час перед сроком; фигурными скобками обозначены явления, наблюдавшиеся между сроками (за 1-3 часа до срока); квадратными скобками обозначены град или гололедные отложения с указанием их диаметра в мм.
Облачность - указаны через наклонную черту общая и нижняя облачность в баллах и высота нижней границы облаков в метрах; квадратными скобками обозначены формы облаков: Ci - перистые, Cs - перисто-слоистые, Cc - перисто-кучевые, Ac - высококучевые, As - высокослоистые, Sc - слоисто-кучевые, Ns - слоисто-дождевые, Cu - кучевые, Cb - кучево-дождевые. Подробнее классификацию облаков см. в Атласе облаков (PDF).
T - Температура воздуха - температура, измеренная на высоте 2 м над землей.
Td - Температура точки росы - температура, при понижении до которой содержащийся в воздухе водяной пар достигнет насыщения.
f - Относительная влажность воздуха - влажноcть воздуха, измеренная на высоте 2 м над землей.
Te - Эффективная температура - температура, которую ощущает одетый по сезону человек в тени. Характеристика душности погоды. При расчете учитывается влияние влажности воздуха и скорости ветра на теплоощущения человека.
Tes - Эффективная температура на солнце - температура, которую ощущает человек, с поправкой на солнечный нагрев. Характеристика знойности погоды. Зависит от высоты солнца над горизонтом, облачности и скорости ветра. Ночью, в пасмурную погоду, а также при ветре 12 м/с и более поправка равна нулю.
P - Атмосферное давление - приведенное к уровню моря атмосферное давление.
Po - Атмосферное давление - измеренное на уровне метеостанции атмосферное давление.
Tmin - Минимальная температура - минимум температуры воздуха на высоте 2 м над землей.
Tmax - Максимальная температура - максимум температуры воздуха на высоте 2 м над землей.
R - Количество осадков - Количество выпавших осадков за период времени, мм. При наведении курсора мыши на число - период времени, за который выпало указанное количество осадков.
R24 - Количество осадков - Количество выпавших осадков за 24 часа, мм.
S - Снежный покров - Высота снежного покрова, см. При наведении курсора мыши на число - состояние снежного покрова и степень покрытия местности в баллах.